TITAN 3C TRANSTAGE DEB, 53647

Orbit data source: Space-Track

TITAN 3C TRANSTAGE DEB, 53647 is space debris in GEO originally from a launch on Thu, 30 May 1974 UTC launched from the Air Force Eastern Test Range (AFETR). Debris objects in space refer to the collection of defunct objects orbiting the Earth. Examples of debris include non-operational satellites, rocket bodies, and fragments generated from explosions, collisions, or faulty payload assembly.

Not visible in the next 10 days
TITAN 3C TRANSTAGE DEB details
Identifier
53647, 1974-039D
Orbit
GEO
Last TLE update3 months ago
Origin
Flag of USNASA GRC (US)
ManufacturerMartin Marietta
MissionSpacecraft
Bus & MotorUnknown
MassUnknown
Launch date (UTC)
1974-05-30 (51 years ago)
Launch vehicleUnknown
Launch site
Air Force Eastern Test Range (AFETR)
Object type
Payload
Rocket body
Debris
Shape & HBRUnknown
Radar Cross SectionRCS unknown

Expand to show TLE details & history

TLE from 3 months ago
0 TITAN 3C TRANSTAGE DEB
1 53647U 74039D   24273.63213551  .00000067  00000-0  00000-0 0  9995
2 53647   4.3498 272.7542 0236171 232.5063 124.8340  1.00609122    19
Epoch: 2024-09-29T15:10Z
Definitive object data (Epoch: 2024-09-29T15:10:16.508Z)
Latitude-0.01051°
Longitude35.84639°
Altitude36,272.027 km
Speed3.036 km/s
True Right ascension18h 09m 08s
True Declination0° 00' 38"
Sunlit
Object was in daylight at TLE epoch
Visualization TLE readout
Latitude-3.0571°
Longitude-97.34588°
Altitude34,716.372 km
Speed3.15 km/s
Apparent Right ascension08h 52m 30s
Apparent Declination-8° 14' 30"
Sunlit
Object is in daylight
Visualization observer readout
Local Sidereal Time16:50:13
Azimuth283.195° WNW
Elevation-27.707°
Doppler factor1
Orbital elements
Apogee altitude36,686.963 km
Perigee altitude34,699.749 km
Semi-major axis42,071.493 km
Eccentricity0.0236171
Inclination4.3498°
RAAN272.7542°
Arg. of periapsis232.5063°
True anomaly127.01799°
Mean anomaly124.834°
Eccentric anomaly125.9297°
Mean motion0.25151 °/min
BSTARUnknown
Orbital period1431.33 mins
Loading maneuver chart data...
Loading historical data...
Loading historical data...
Loading historical data...
Loading historical data...
Loading historical data...
Loading historical data...
Loading historical data...

TITAN 3C TRANSTAGE DEB Visibility forecast

Observer location: undefined°, undefined

TITAN 3C TRANSTAGE DEB is not visible in the next 10 days
Span
Click to sort rows by Start time (UTC) header in descending order
Start Az.
Max El. time (UTC)
Max El. Az.
Max El.
End time (UTC)
End Az.
|